Time,TemperatureF,DewpointF,PressureIn,WindDirection,WindDirectionDegrees,WindSpeedMPH,WindSpeedGustMPH,Humidity,HourlyPrecipIn,Conditions,Clouds,dailyrainin,SoftwareType,DateUTC
2013-03-05 00:01:00,26.4,21.1,30.09,SW,225,0.0,0.0,80,0.00,CLR,,0.00,WeatherDisplay:10.37,2013-03-05 08:01:00,
2013-03-05 00:06:00,26.4,21.1,30.09,SW,225,0.0,0.0,80,0.00,CLR,,0.00,WeatherDisplay:10.37,2013-03-05 08:06:00,
2013-03-05 00:11:00,26.4,21.1,30.10,SW,225,0.0,0.0,80,0.00,CLR,,0.00,WeatherDisplay:10.37,2013-03-05 08:11:00,
2013-03-05 00:16:00,26.2,20.9,30.09,SW,225,0.0,0.0,80,0.00,CLR,,0.00,WeatherDisplay:10.37,2013-03-05 08:16:00,
2013-03-05 00:21:00,26.2,20.9,30.10,SW,225,0.0,0.0,80,0.00,CLR,,0.00,WeatherDisplay:10.37,2013-03-05 08:21:00,
2013-03-05 00:26:00,26.1,20.7,30.09,SW,225,0.0,0.0,80,0.00,CLR,,0.00,WeatherDisplay:10.37,2013-03-05 08:26:00,
2013-03-05 00:31:00,25.9,20.6,30.10,SW,225,1.6,1.6,80,0.00,CLR,,0.00,WeatherDisplay:10.37,2013-03-05 08:31:00,
2013-03-05 00:36:00,25.9,20.9,30.10,SW,225,0.0,0.0,81,0.00,CLR,,0.00,WeatherDisplay:10.37,2013-03-05 08:36:00,
2013-03-05 00:41:00,25.7,20.7,30.10,SW,225,0.0,0.0,81,0.00,CLR,,0.00,WeatherDisplay:10.37,2013-03-05 08:41:00,
2013-03-05 00:46:00,25.7,20.7,30.10,SW,225,0.0,0.0,81,0.00,CLR,,0.00,WeatherDisplay:10.37,2013-03-05 08:46:00,
2013-03-05 00:51:00,25.5,20.5,30.10,SW,225,0.0,0.0,81,0.00,CLR,,0.00,WeatherDisplay:10.37,2013-03-05 08:51:00,
2013-03-05 00:56:00,25.5,20.5,30.10,SW,225,0.0,0.0,81,0.00,CLR,,0.00,WeatherDisplay:10.37,2013-03-05 08:56:00,
2013-03-05 01:01:00,25.5,20.5,30.11,SW,225,0.0,0.0,81,0.00,CLR,,0.00,WeatherDisplay:10.37,2013-03-05 09:01:00,
2013-03-05 01:06:00,25.5,20.5,30.11,SW,225,0.0,0.0,81,0.00,CLR,,0.00,WeatherDisplay:10.37,2013-03-05 09:06:00,
2013-03-05 01:11:00,25.5,20.5,30.10,SW,225,0.0,0.0,81,0.00,CLR,,0.00,WeatherDisplay:10.37,2013-03-05 09:11:00,
2013-03-05 01:16:00,25.3,20.3,30.11,SW,225,0.0,0.0,81,0.00,CLR,,0.00,WeatherDisplay:10.37,2013-03-05 09:16:00,
2013-03-05 01:21:00,25.3,20.3,30.11,SW,225,0.0,0.0,81,0.00,CLR,,0.00,WeatherDisplay:10.37,2013-03-05 09:21:00,
2013-03-05 01:26:00,25.2,20.1,30.11,SW,225,0.0,0.0,81,0.00,CLR,,0.00,WeatherDisplay:10.37,2013-03-05 09:26:00,
2013-03-05 01:31:00,25.2,20.1,30.11,SW,225,0.0,0.0,81,0.00,CLR,,0.00,WeatherDisplay:10.37,2013-03-05 09:31:00,
2013-03-05 01:36:00,25.0,20.0,30.11,SW,225,0.0,0.0,81,0.00,CLR,,0.00,WeatherDisplay:10.37,2013-03-05 09:36:00,
2013-03-05 01:41:00,25.0,20.0,30.10,SW,225,0.0,0.0,81,0.00,CLR,,0.00,WeatherDisplay:10.37,2013-03-05 09:41:00,
2013-03-05 01:46:00,24.6,19.9,30.11,SW,225,0.0,0.0,82,0.00,CLR,,0.00,WeatherDisplay:10.37,2013-03-05 09:46:00,
2013-03-05 01:51:00,24.6,19.9,30.11,SW,225,0.0,0.0,82,0.00,CLR,,0.00,WeatherDisplay:10.37,2013-03-05 09:51:00,
2013-03-05 01:56:00,24.6,19.9,30.11,SW,225,0.0,0.0,82,0.00,CLR,,0.00,WeatherDisplay:10.37,2013-03-05 09:56:00,
2013-03-05 02:01:00,24.6,19.9,30.11,SW,225,0.0,0.0,82,0.00,CLR,,0.00,WeatherDisplay:10.37,2013-03-05 10:01:00,
2013-03-05 02:06:00,24.6,19.9,30.10,SW,225,0.0,0.0,82,0.00,CLR,,0.00,WeatherDisplay:10.37,2013-03-05 10:06:00,
2013-03-05 02:11:00,24.6,19.9,30.10,SW,225,0.0,0.0,82,0.00,CLR,,0.00,WeatherDisplay:10.37,2013-03-05 10:11:00,
2013-03-05 02:16:00,24.6,19.9,30.10,SW,225,0.0,0.0,82,0.00,CLR,,0.00,WeatherDisplay:10.37,2013-03-05 10:16:00,
2013-03-05 02:21:00,24.4,19.7,30.10,SW,225,0.0,0.0,82,0.00,CLR,,0.00,WeatherDisplay:10.37,2013-03-05 10:21:00,
2013-03-05 02:26:00,24.4,19.7,30.09,SW,225,0.0,0.0,82,0.00,CLR,,0.00,WeatherDisplay:10.37,2013-03-05 10:26:00,
2013-03-05 02:31:00,24.4,19.7,30.09,SW,225,0.0,0.0,82,0.00,CLR,,0.00,WeatherDisplay:10.37,2013-03-05 10:31:00,
2013-03-05 02:36:00,24.4,19.7,30.09,SW,225,0.0,0.0,82,0.00,CLR,,0.00,WeatherDisplay:10.37,2013-03-05 10:36:00,
2013-03-05 02:41:00,24.4,19.7,30.09,SW,225,0.0,0.0,82,0.00,CLR,,0.00,WeatherDisplay:10.37,2013-03-05 10:41:00,
2013-03-05 02:46:00,24.3,19.8,30.08,SW,225,0.0,0.0,83,0.00,CLR,,0.00,WeatherDisplay:10.37,2013-03-05 10:46:00,
2013-03-05 02:51:00,24.1,19.7,30.09,SW,225,0.0,0.0,83,0.00,CLR,,0.00,WeatherDisplay:10.37,2013-03-05 10:51:00,
2013-03-05 02:56:00,24.3,19.8,30.09,SW,225,0.0,0.0,83,0.00,CLR,,0.00,WeatherDisplay:10.37,2013-03-05 10:56:00,
2013-03-05 03:01:00,24.4,20.0,30.09,SW,225,0.0,0.0,83,0.00,CLR,,0.00,WeatherDisplay:10.37,2013-03-05 11:01:00,
2013-03-05 03:06:00,24.1,19.7,30.08,SW,225,0.0,0.0,83,0.00,CLR,,0.00,WeatherDisplay:10.37,2013-03-05 11:06:00,
2013-03-05 03:11:00,24.1,19.7,30.08,SW,225,0.0,0.0,83,0.00,CLR,,0.00,WeatherDisplay:10.37,2013-03-05 11:11:00,
2013-03-05 03:16:00,24.1,19.7,30.08,SW,225,0.0,0.0,83,0.00,CLR,,0.00,WeatherDisplay:10.37,2013-03-05 11:16:00,
2013-03-05 03:21:00,24.1,19.7,30.09,SW,225,0.0,0.0,83,0.00,CLR,,0.00,WeatherDisplay:10.37,2013-03-05 11:21:00,
2013-03-05 03:26:00,24.1,19.7,30.09,SW,225,0.0,0.0,83,0.00,CLR,,0.00,WeatherDisplay:10.37,2013-03-05 11:26:00,
2013-03-05 03:31:00,23.9,19.5,30.09,SW,225,0.0,0.0,83,0.00,CLR,,0.00,WeatherDisplay:10.37,2013-03-05 11:31:00,
2013-03-05 03:36:00,23.9,19.5,30.08,SW,225,0.0,0.0,83,0.00,CLR,,0.00,WeatherDisplay:10.37,2013-03-05 11:36:00,
2013-03-05 03:41:00,23.9,19.5,30.08,SW,225,0.0,0.0,83,0.00,CLR,,0.00,WeatherDisplay:10.37,2013-03-05 11:41:00,
2013-03-05 03:46:00,23.9,19.5,30.08,SW,225,0.0,0.0,83,0.00,CLR,,0.00,WeatherDisplay:10.37,2013-03-05 11:46:00,
2013-03-05 03:51:00,23.9,19.5,30.08,SW,225,0.0,0.0,83,0.00,CLR,,0.00,WeatherDisplay:10.37,2013-03-05 11:51:00,
2013-03-05 03:56:00,23.9,19.5,30.08,SW,225,0.0,0.0,83,0.00,CLR,,0.00,WeatherDisplay:10.37,2013-03-05 11:56:00,
2013-03-05 04:01:00,23.7,19.3,30.08,SW,225,0.0,0.0,83,0.00,CLR,,0.00,WeatherDisplay:10.37,2013-03-05 12:01:00,
2013-03-05 04:06:00,23.7,19.3,30.08,SW,225,0.0,0.0,83,0.00,CLR,,0.00,WeatherDisplay:10.37,2013-03-05 12:06:00,
2013-03-05 04:11:00,23.7,19.3,30.08,SW,225,0.0,0.0,83,0.00,CLR,,0.00,WeatherDisplay:10.37,2013-03-05 12:11:00,
2013-03-05 04:16:00,23.7,19.3,30.08,SW,225,0.0,0.0,83,0.00,CLR,,0.00,WeatherDisplay:10.37,2013-03-05 12:16:00,
2013-03-05 04:21:00,23.5,19.1,30.08,SW,225,0.0,0.0,83,0.00,CLR,,0.00,WeatherDisplay:10.37,2013-03-05 12:21:00,
2013-03-05 04:26:00,23.7,19.6,30.07,SW,225,0.0,0.0,84,0.00,CLR,,0.00,WeatherDisplay:10.37,2013-03-05 12:26:00,
2013-03-05 04:31:00,23.5,19.4,30.07,SW,225,0.0,0.0,84,0.00,CLR,,0.00,WeatherDisplay:10.37,2013-03-05 12:31:00,
2013-03-05 04:36:00,23.5,19.4,30.07,SW,225,0.0,0.0,84,0.00,CLR,,0.00,WeatherDisplay:10.37,2013-03-05 12:36:00,
2013-03-05 04:41:00,23.7,19.6,30.07,SW,225,0.0,0.0,84,0.00,CLR,,0.00,WeatherDisplay:10.37,2013-03-05 12:41:00,
2013-03-05 04:46:00,23.5,19.4,30.07,SW,225,0.0,0.0,84,0.00,CLR,,0.00,WeatherDisplay:10.37,2013-03-05 12:46:00,
2013-03-05 04:51:00,23.5,19.4,30.07,SW,225,0.0,0.0,84,0.00,CLR,,0.00,WeatherDisplay:10.37,2013-03-05 12:51:00,
2013-03-05 04:56:00,23.5,19.4,30.07,SW,225,0.0,0.0,84,0.00,CLR,,0.00,WeatherDisplay:10.37,2013-03-05 12:56:00,
2013-03-05 05:01:00,23.5,19.4,30.07,SW,225,0.0,0.0,84,0.00,CLR,,0.00,WeatherDisplay:10.37,2013-03-05 13:01:00,
2013-03-05 05:06:00,23.5,19.4,30.07,SW,225,0.0,0.0,84,0.00,CLR,,0.00,WeatherDisplay:10.37,2013-03-05 13:06:00,
2013-03-05 05:11:00,23.5,19.4,30.07,SW,225,0.0,0.0,84,0.00,CLR,,0.00,WeatherDisplay:10.37,2013-03-05 13:11:00,
2013-03-05 05:16:00,23.5,19.4,30.07,SW,225,0.0,0.0,84,0.00,CLR,,0.00,WeatherDisplay:10.37,2013-03-05 13:16:00,
2013-03-05 05:21:00,23.4,19.2,30.07,SW,225,0.0,0.0,84,0.00,CLR,,0.00,WeatherDisplay:10.37,2013-03-05 13:21:00,
2013-03-05 05:26:00,23.4,19.2,30.07,SW,225,0.0,0.0,84,0.00,CLR,,0.00,WeatherDisplay:10.37,2013-03-05 13:26:00,
2013-03-05 05:31:00,23.4,19.2,30.07,SW,225,0.0,0.0,84,0.00,CLR,,0.00,WeatherDisplay:10.37,2013-03-05 13:31:00,
2013-03-05 05:36:00,23.4,19.2,30.07,SW,225,0.0,0.0,84,0.00,CLR,,0.00,WeatherDisplay:10.37,2013-03-05 13:36:00,
2013-03-05 05:41:00,23.4,19.2,30.07,SW,225,0.0,0.0,84,0.00,CLR,,0.00,WeatherDisplay:10.37,2013-03-05 13:41:00,
2013-03-05 05:46:00,23.2,19.1,30.06,SW,225,0.0,0.0,84,0.00,CLR,,0.00,WeatherDisplay:10.37,2013-03-05 13:46:00,
2013-03-05 05:51:00,23.2,19.1,30.07,SW,225,0.0,0.0,84,0.00,CLR,,0.00,WeatherDisplay:10.37,2013-03-05 13:51:00,
2013-03-05 05:56:00,23.2,19.1,30.07,SW,225,0.0,0.0,84,0.00,CLR,,0.00,WeatherDisplay:10.37,2013-03-05 13:56:00,
2013-03-05 06:01:00,23.2,19.1,30.06,SW,225,0.0,0.0,84,0.00,CLR,,0.00,WeatherDisplay:10.37,2013-03-05 14:01:00,
2013-03-05 06:06:00,23.2,19.1,30.06,SW,225,0.0,0.0,84,0.00,CLR,,0.00,WeatherDisplay:10.37,2013-03-05 14:06:00,
2013-03-05 06:11:00,23.2,19.1,30.06,SW,225,0.0,0.0,84,0.00,CLR,,0.00,WeatherDisplay:10.37,2013-03-05 14:11:00,
2013-03-05 06:16:00,23.2,19.1,30.06,SW,225,0.0,0.0,84,0.00,CLR,,0.00,WeatherDisplay:10.37,2013-03-05 14:16:00,
2013-03-05 06:21:00,23.0,18.9,30.06,WSW,248,0.0,0.0,84,0.00,CLR,,0.00,WeatherDisplay:10.37,2013-03-05 14:21:00,
2013-03-05 06:26:00,23.0,19.2,30.06,WSW,248,0.0,0.0,85,0.00,CLR,,0.00,WeatherDisplay:10.37,2013-03-05 14:26:00,
2013-03-05 06:31:00,23.2,19.3,30.06,SW,225,0.0,0.0,85,0.00,CLR,,0.00,WeatherDisplay:10.37,2013-03-05 14:31:00,
2013-03-05 06:36:00,23.2,19.3,30.06,SW,225,0.0,0.0,85,0.00,CLR,,0.00,WeatherDisplay:10.37,2013-03-05 14:36:00,
2013-03-05 06:41:00,23.2,19.3,30.06,SW,225,0.0,0.0,85,0.00,CLR,,0.00,WeatherDisplay:10.37,2013-03-05 14:41:00,
2013-03-05 06:46:00,23.5,19.7,30.06,SW,225,0.0,0.0,85,0.00,CLR,,0.00,WeatherDisplay:10.37,2013-03-05 14:46:00,
2013-03-05 06:51:00,23.5,19.7,30.06,SW,225,0.0,0.0,85,0.00,CLR,,0.00,WeatherDisplay:10.37,2013-03-05 14:51:00,
2013-03-05 06:56:00,23.9,20.0,30.06,SW,225,0.0,0.0,85,0.00,CLR,,0.00,WeatherDisplay:10.37,2013-03-05 14:56:00,
2013-03-05 07:01:00,24.1,20.2,30.06,SW,225,0.0,0.0,85,0.00,CLR,,0.00,WeatherDisplay:10.37,2013-03-05 15:01:00,
2013-03-05 07:06:00,24.4,20.6,30.06,SW,225,0.0,0.0,85,0.00,CLR,,0.00,WeatherDisplay:10.37,2013-03-05 15:06:00,
2013-03-05 07:11:00,24.6,20.8,30.06,SW,225,0.0,0.0,85,0.00,CLR,,0.00,WeatherDisplay:10.37,2013-03-05 15:11:00,
2013-03-05 07:16:00,25.3,21.5,30.06,SW,225,0.0,0.0,85,0.00,CLR,,0.00,WeatherDisplay:10.37,2013-03-05 15:16:00,
2013-03-05 07:21:00,26.4,22.5,30.06,SW,225,0.0,0.0,85,0.00,CLR,,0.00,WeatherDisplay:10.37,2013-03-05 15:21:00,
2013-03-05 07:26:00,30.0,26.3,30.06,SW,225,0.0,0.0,86,0.00,CLR,,0.00,WeatherDisplay:10.37,2013-03-05 15:26:00,
2013-03-05 07:31:00,33.3,29.2,30.06,SW,225,0.0,0.0,85,0.00,CLR,,0.00,WeatherDisplay:10.37,2013-03-05 15:31:00,
2013-03-05 07:36:00,35.2,30.6,30.05,SW,225,0.0,0.0,83,0.00,CLR,,0.00,WeatherDisplay:10.37,2013-03-05 15:36:00,
2013-03-05 07:42:00,37.0,31.8,30.05,SW,225,0.0,0.0,81,0.00,CLR,,0.00,WeatherDisplay:10.37,2013-03-05 15:42:00,
2013-03-05 07:47:00,37.2,31.0,30.05,SW,225,0.0,0.0,78,0.00,CLR,,0.00,WeatherDisplay:10.37,2013-03-05 15:47:00,
2013-03-05 07:52:00,37.0,30.5,30.05,SSW,202,0.0,0.0,77,0.00,CLR,,0.00,WeatherDisplay:10.37,2013-03-05 15:52:00,
2013-03-05 07:57:00,38.3,31.1,30.05,SSW,202,0.0,0.0,75,0.00,CLR,,0.00,WeatherDisplay:10.37,2013-03-05 15:57:00,
2013-03-05 08:02:00,39.4,31.8,30.04,SSW,202,0.0,0.0,74,0.00,CLR,,0.00,WeatherDisplay:10.37,2013-03-05 16:02:00,
2013-03-05 08:07:00,39.4,31.1,30.04,SSW,202,0.0,0.0,72,0.00,CLR,,0.00,WeatherDisplay:10.37,2013-03-05 16:07:00,
2013-03-05 08:12:00,39.7,31.1,30.04,SSW,202,0.0,0.0,71,0.00,CLR,,0.00,WeatherDisplay:10.37,2013-03-05 16:12:00,
2013-03-05 08:17:00,39.4,30.1,30.04,SSW,202,0.0,0.0,69,0.00,CLR,,0.00,WeatherDisplay:10.37,2013-03-05 16:17:00,
2013-03-05 08:22:00,39.0,30.1,30.04,SSW,202,0.0,0.0,70,0.00,CLR,,0.00,WeatherDisplay:10.37,2013-03-05 16:22:00,
2013-03-05 08:27:00,39.0,30.1,30.03,SSW,202,0.0,0.0,70,0.00,CLR,,0.00,WeatherDisplay:10.37,2013-03-05 16:27:00,
2013-03-05 08:32:00,38.8,29.5,30.02,SSW,202,0.0,0.0,69,0.00,CLR,,0.00,WeatherDisplay:10.37,2013-03-05 16:32:00,
2013-03-05 08:37:00,38.8,29.5,30.03,SSW,202,0.0,0.0,69,0.00,CLR,,0.00,WeatherDisplay:10.37,2013-03-05 16:37:00,
2013-03-05 08:42:00,37.6,28.3,30.02,SSE,158,2.3,2.3,69,0.00,CLR,,0.00,WeatherDisplay:10.37,2013-03-05 16:42:00,
2013-03-05 08:47:00,37.0,27.8,30.01,SSE,158,0.0,0.0,69,0.00,CLR,,0.00,WeatherDisplay:10.37,2013-03-05 16:47:00,
2013-03-05 08:52:00,35.6,26.8,30.02,SSE,158,0.0,0.0,70,0.00,CLR,,0.00,WeatherDisplay:10.37,2013-03-05 16:52:00,
2013-03-05 08:57:00,34.9,26.4,30.01,SSE,158,0.0,0.0,71,0.00,CLR,,0.00,WeatherDisplay:10.37,2013-03-05 16:57:00,
2013-03-05 09:02:00,34.3,25.9,30.01,SSE,158,0.0,0.0,71,0.00,CLR,,0.00,WeatherDisplay:10.37,2013-03-05 17:02:00,
2013-03-05 09:07:00,34.3,26.2,30.02,SSE,158,0.0,0.0,72,0.00,CLR,,0.00,WeatherDisplay:10.37,2013-03-05 17:07:00,
2013-03-05 09:12:00,34.0,26.2,30.01,SSE,158,0.0,0.0,73,0.00,CLR,,0.00,WeatherDisplay:10.37,2013-03-05 17:12:00,
2013-03-05 09:17:00,33.8,26.1,30.01,SSE,158,0.0,0.0,73,0.00,CLR,,0.00,WeatherDisplay:10.37,2013-03-05 17:17:00,
2013-03-05 09:22:00,33.6,26.2,30.00,SSE,158,0.0,0.0,74,0.00,CLR,,0.00,WeatherDisplay:10.37,2013-03-05 17:22:00,
2013-03-05 09:27:00,33.4,26.0,30.00,SSE,158,0.0,0.0,74,0.00,CLR,,0.00,WeatherDisplay:10.37,2013-03-05 17:27:00,
2013-03-05 09:32:00,33.4,26.4,29.99,SSE,158,0.0,0.0,75,0.00,CLR,,0.00,WeatherDisplay:10.37,2013-03-05 17:32:00,
2013-03-05 09:37:00,33.6,26.5,29.99,SSE,158,0.0,0.0,75,0.00,CLR,,0.00,WeatherDisplay:10.37,2013-03-05 17:37:00,
2013-03-05 09:42:00,33.6,26.5,29.99,SSE,158,0.0,0.0,75,0.00,CLR,,0.00,WeatherDisplay:10.37,2013-03-05 17:42:00,
2013-03-05 09:47:00,33.6,26.5,29.99,SSE,158,0.0,0.0,75,0.00,CLR,,0.00,WeatherDisplay:10.37,2013-03-05 17:47:00,
2013-03-05 09:52:00,34.0,27.2,29.98,SSE,158,0.0,0.0,76,0.00,CLR,,0.00,WeatherDisplay:10.37,2013-03-05 17:52:00,
2013-03-05 09:57:00,34.3,27.2,29.98,SE,135,1.3,1.3,75,0.00,CLR,,0.00,WeatherDisplay:10.37,2013-03-05 17:57:00,
2013-03-05 10:02:00,34.3,27.2,29.98,ESE,112,1.6,1.6,75,0.00,CLR,,0.00,WeatherDisplay:10.37,2013-03-05 18:02:00,
2013-03-05 10:07:00,34.7,27.6,29.97,SE,135,0.0,0.0,75,0.00,CLR,,0.00,WeatherDisplay:10.37,2013-03-05 18:07:00,
2013-03-05 10:12:00,35.2,27.8,29.97,ENE,68,2.3,2.3,74,0.00,CLR,,0.00,WeatherDisplay:10.37,2013-03-05 18:12:00,
2013-03-05 10:17:00,35.4,28.0,29.97,ENE,68,2.3,0.0,74,0.00,CLR,,0.00,WeatherDisplay:10.37,2013-03-05 18:17:00,
2013-03-05 10:22:00,35.8,28.0,29.96,ENE,68,0.0,0.0,73,0.00,CLR,,0.00,WeatherDisplay:10.37,2013-03-05 18:22:00,
2013-03-05 10:27:00,36.1,28.3,29.96,ENE,68,3.5,3.5,73,0.00,CLR,,0.00,WeatherDisplay:10.37,2013-03-05 18:27:00,
2013-03-05 10:32:00,36.3,28.2,29.96,East,90,1.1,1.1,72,0.00,CLR,,0.00,WeatherDisplay:10.37,2013-03-05 18:32:00,
2013-03-05 10:37:00,36.7,28.2,29.95,East,90,0.0,0.0,71,0.00,CLR,,0.00,WeatherDisplay:10.37,2013-03-05 18:37:00,
2013-03-05 10:42:00,37.2,28.3,29.95,East,90,0.0,0.0,70,0.00,CLR,,0.00,WeatherDisplay:10.37,2013-03-05 18:42:00,
2013-03-05 10:47:00,37.9,29.0,29.95,East,90,0.0,0.0,70,0.00,CLR,,0.00,WeatherDisplay:10.37,2013-03-05 18:47:00,
2013-03-05 10:52:00,38.5,29.2,29.94,NE,45,0.0,0.0,69,0.00,CLR,,0.00,WeatherDisplay:10.37,2013-03-05 18:52:00,
2013-03-05 10:57:00,39.6,29.5,29.94,NE,45,0.0,0.0,67,0.00,CLR,,0.00,WeatherDisplay:10.37,2013-03-05 18:57:00,
2013-03-05 11:02:00,39.9,29.5,29.94,NW,315,3.6,3.6,66,0.00,CLR,,0.00,WeatherDisplay:10.37,2013-03-05 19:02:00,
2013-03-05 11:07:00,40.3,29.4,29.93,NW,315,3.5,3.5,65,0.00,CLR,,0.00,WeatherDisplay:10.37,2013-03-05 19:07:00,
2013-03-05 11:12:00,40.8,30.0,29.93,NW,315,2.3,2.3,65,0.00,CLR,,0.00,WeatherDisplay:10.37,2013-03-05 19:12:00,
2013-03-05 11:17:00,41.2,29.9,29.93,NW,315,3.5,3.5,64,0.00,CLR,,0.00,WeatherDisplay:10.37,2013-03-05 19:17:00,
2013-03-05 11:22:00,41.5,29.9,29.93,NW,315,0.0,0.0,63,0.00,CLR,,0.00,WeatherDisplay:10.37,2013-03-05 19:22:00,
2013-03-05 11:27:00,41.9,29.8,29.92,NW,315,0.0,0.0,62,0.00,CLR,,0.00,WeatherDisplay:10.37,2013-03-05 19:27:00,
2013-03-05 11:32:00,42.1,29.6,29.92,East,90,2.3,2.3,61,0.00,CLR,,0.00,WeatherDisplay:10.37,2013-03-05 19:32:00,
2013-03-05 11:37:00,42.3,29.8,29.92,East,90,3.5,3.5,61,0.00,CLR,,0.00,WeatherDisplay:10.37,2013-03-05 19:37:00,
2013-03-05 11:42:00,42.4,29.1,29.92,ESE,112,2.3,2.3,59,0.00,CLR,,0.00,WeatherDisplay:10.37,2013-03-05 19:42:00,
2013-03-05 11:47:00,42.6,29.3,29.92,ESE,112,0.0,0.0,59,0.00,CLR,,0.00,WeatherDisplay:10.37,2013-03-05 19:47:00,
2013-03-05 11:52:00,43.0,29.2,29.92,East,90,2.3,2.3,58,0.00,CLR,,0.00,WeatherDisplay:10.37,2013-03-05 19:52:00,
2013-03-05 11:57:00,43.5,29.7,29.90,ENE,68,5.8,5.8,58,0.00,CLR,,0.00,WeatherDisplay:10.37,2013-03-05 19:57:00,
2013-03-05 12:02:00,43.9,29.6,29.90,ENE,68,3.8,3.8,57,0.00,CLR,,0.00,WeatherDisplay:10.37,2013-03-05 20:02:00,
2013-03-05 12:07:00,44.2,29.5,29.89,East,90,3.5,3.5,56,0.00,CLR,,0.00,WeatherDisplay:10.37,2013-03-05 20:07:00,
2013-03-05 12:12:00,44.4,29.7,29.89,ESE,112,3.5,3.5,56,0.00,CLR,,0.00,WeatherDisplay:10.37,2013-03-05 20:12:00,
2013-03-05 12:17:00,44.4,29.7,29.88,ESE,112,0.0,0.0,56,0.00,CLR,,0.00,WeatherDisplay:10.37,2013-03-05 20:17:00,
2013-03-05 12:22:00,45.0,29.8,29.89,ESE,112,2.7,2.7,55,0.00,CLR,,0.00,WeatherDisplay:10.37,2013-03-05 20:22:00,
2013-03-05 12:27:00,45.1,29.5,29.89,East,90,3.5,3.5,54,0.00,CLR,,0.00,WeatherDisplay:10.37,2013-03-05 20:27:00,
2013-03-05 12:32:00,45.1,29.5,29.88,East,90,0.0,0.0,54,0.00,CLR,,0.00,WeatherDisplay:10.37,2013-03-05 20:32:00,
2013-03-05 12:37:00,45.7,30.0,29.88,NW,315,3.5,4.0,54,0.00,CLR,,0.00,WeatherDisplay:10.37,2013-03-05 20:37:00,
2013-03-05 12:42:00,46.0,30.3,29.88,North,0,2.3,2.3,54,0.00,CLR,,0.00,WeatherDisplay:10.37,2013-03-05 20:42:00,
2013-03-05 12:47:00,46.2,30.5,29.87,NE,45,4.6,4.6,54,0.00,CLR,,0.00,WeatherDisplay:10.37,2013-03-05 20:47:00,
2013-03-05 12:52:00,46.6,30.8,29.87,NNE,22,0.0,0.0,54,0.00,CLR,,0.00,WeatherDisplay:10.37,2013-03-05 20:52:00,
2013-03-05 12:57:00,46.8,31.0,29.87,NE,45,2.7,2.7,54,0.00,CLR,,0.00,WeatherDisplay:10.37,2013-03-05 20:57:00,
2013-03-05 13:02:00,46.8,30.5,29.87,East,90,1.1,1.1,53,0.00,CLR,,0.00,WeatherDisplay:10.37,2013-03-05 21:02:00,
2013-03-05 13:07:00,46.6,29.9,29.86,SE,135,3.5,3.5,52,0.00,CLR,,0.00,WeatherDisplay:10.37,2013-03-05 21:07:00,
2013-03-05 13:12:00,46.6,29.9,29.86,SE,135,3.5,3.5,52,0.00,CLR,,0.00,WeatherDisplay:10.37,2013-03-05 21:12:00,
2013-03-05 13:17:00,46.6,29.9,29.86,SE,135,0.0,0.0,52,0.00,CLR,,0.00,WeatherDisplay:10.37,2013-03-05 21:17:00,
2013-03-05 13:22:00,46.6,29.9,29.85,SE,135,2.3,2.3,52,0.00,CLR,,0.00,WeatherDisplay:10.37,2013-03-05 21:22:00,
2013-03-05 13:27:00,46.8,30.0,29.86,SE,135,0.0,0.0,52,0.00,CLR,,0.00,WeatherDisplay:10.37,2013-03-05 21:27:00,
2013-03-05 13:32:00,46.9,30.2,29.85,SE,135,0.0,0.0,52,0.00,CLR,,0.00,WeatherDisplay:10.37,2013-03-05 21:32:00,
2013-03-05 13:37:00,47.3,30.5,29.85,SE,135,0.0,0.0,52,0.00,CLR,,0.00,WeatherDisplay:10.37,2013-03-05 21:37:00,
2013-03-05 13:42:00,47.5,30.7,29.85,ESE,112,0.0,0.0,52,0.00,CLR,,0.00,WeatherDisplay:10.37,2013-03-05 21:42:00,
2013-03-05 13:47:00,47.7,30.4,29.85,East,90,4.0,4.0,51,0.00,CLR,,0.00,WeatherDisplay:10.37,2013-03-05 21:47:00,
2013-03-05 13:52:00,47.8,30.6,29.84,East,90,0.0,0.0,51,0.00,CLR,,0.00,WeatherDisplay:10.37,2013-03-05 21:52:00,
2013-03-05 13:57:00,48.0,30.7,29.84,East,90,0.0,0.0,51,0.00,CLR,,0.00,WeatherDisplay:10.37,2013-03-05 21:57:00,
2013-03-05 14:02:00,48.0,30.7,29.85,East,90,0.0,0.0,51,0.00,CLR,,0.00,WeatherDisplay:10.37,2013-03-05 22:02:00,
2013-03-05 14:07:00,48.4,31.1,29.85,East,90,5.4,5.4,51,0.00,CLR,,0.00,WeatherDisplay:10.37,2013-03-05 22:07:00,
2013-03-05 14:12:00,48.2,30.4,29.84,East,90,4.6,4.6,50,0.00,CLR,,0.00,WeatherDisplay:10.37,2013-03-05 22:12:00,
2013-03-05 14:17:00,48.2,30.4,29.84,East,90,3.5,3.5,50,0.00,CLR,,0.00,WeatherDisplay:10.37,2013-03-05 22:17:00,
2013-03-05 14:22:00,48.0,29.7,29.84,East,90,2.3,2.4,49,0.00,CLR,,0.00,WeatherDisplay:10.37,2013-03-05 22:22:00,
2013-03-05 14:27:00,48.2,30.4,29.84,ENE,68,4.6,4.6,50,0.00,CLR,,0.00,WeatherDisplay:10.37,2013-03-05 22:27:00,
2013-03-05 14:32:00,48.2,29.9,29.84,ESE,112,3.6,3.6,49,0.00,CLR,,0.00,WeatherDisplay:10.37,2013-03-05 22:32:00,
2013-03-05 14:37:00,48.6,30.7,29.83,NNE,22,0.0,0.0,50,0.00,CLR,,0.00,WeatherDisplay:10.37,2013-03-05 22:37:00,
2013-03-05 14:42:00,48.6,30.7,29.83,NE,45,5.8,0.0,50,0.00,CLR,,0.00,WeatherDisplay:10.37,2013-03-05 22:42:00,
2013-03-05 14:47:00,48.7,30.9,29.83,NE,45,0.0,0.0,50,0.00,CLR,,0.00,WeatherDisplay:10.37,2013-03-05 22:47:00,
2013-03-05 14:52:00,48.9,31.1,29.84,NNW,338,0.0,0.0,50,0.00,CLR,,0.00,WeatherDisplay:10.37,2013-03-05 22:52:00,
2013-03-05 14:57:00,48.9,31.1,29.84,NW,315,6.3,6.3,50,0.00,CLR,,0.00,WeatherDisplay:10.37,2013-03-05 22:57:00,
2013-03-05 15:02:00,48.9,31.1,29.84,WNW,292,0.0,0.0,50,0.00,CLR,,0.00,WeatherDisplay:10.37,2013-03-05 23:02:00,
2013-03-05 15:07:00,48.7,30.4,29.83,NNW,338,8.1,8.1,49,0.00,CLR,,0.00,WeatherDisplay:10.37,2013-03-05 23:07:00,
2013-03-05 15:12:00,48.6,30.7,29.83,NNW,338,2.3,2.3,50,0.00,CLR,,0.00,WeatherDisplay:10.37,2013-03-05 23:12:00,
2013-03-05 15:17:00,48.6,30.7,29.83,NNW,338,1.3,1.3,50,0.00,CLR,,0.00,WeatherDisplay:10.37,2013-03-05 23:17:00,
2013-03-05 15:22:00,48.4,31.1,29.83,NNW,338,0.0,0.0,51,0.00,CLR,,0.00,WeatherDisplay:10.37,2013-03-05 23:22:00,
2013-03-05 15:27:00,48.4,31.1,29.83,NNW,338,0.0,0.0,51,0.00,CLR,,0.00,WeatherDisplay:10.37,2013-03-05 23:27:00,
2013-03-05 15:32:00,48.4,31.1,29.83,NNW,338,0.0,0.0,51,0.00,CLR,,0.00,WeatherDisplay:10.37,2013-03-05 23:32:00,
2013-03-05 15:37:00,48.4,31.1,29.83,NNW,338,1.1,1.1,51,0.00,CLR,,0.00,WeatherDisplay:10.37,2013-03-05 23:37:00,
2013-03-05 15:42:00,48.2,31.4,29.82,NNW,338,3.5,3.5,52,0.00,CLR,,0.00,WeatherDisplay:10.37,2013-03-05 23:42:00,
2013-03-05 15:47:00,48.0,31.2,29.83,NNW,338,3.6,3.6,52,0.00,CLR,,0.00,WeatherDisplay:10.37,2013-03-05 23:47:00,
2013-03-05 15:52:00,48.0,31.2,29.82,NNW,338,0.0,0.0,52,0.00,CLR,,0.00,WeatherDisplay:10.37,2013-03-05 23:52:00,
2013-03-05 15:57:00,47.8,31.5,29.82,NNW,338,0.0,0.0,53,0.00,CLR,,0.00,WeatherDisplay:10.37,2013-03-05 23:57:00,
2013-03-05 16:02:00,47.7,31.8,29.82,NNW,338,0.0,0.0,54,0.00,CLR,,0.00,WeatherDisplay:10.37,2013-03-06 00:02:00,
2013-03-05 16:07:00,47.3,31.5,29.82,NNW,338,0.0,0.0,54,0.00,CLR,,0.00,WeatherDisplay:10.37,2013-03-06 00:07:00,
2013-03-05 16:12:00,47.3,31.9,29.82,NNW,338,0.0,0.0,55,0.00,CLR,,0.00,WeatherDisplay:10.37,2013-03-06 00:12:00,
2013-03-05 16:17:00,47.1,31.8,29.81,NNW,338,0.0,0.0,55,0.00,CLR,,0.00,WeatherDisplay:10.37,2013-03-06 00:17:00,
2013-03-05 16:22:00,46.9,31.6,29.82,NNW,338,0.0,0.0,55,0.00,CLR,,0.00,WeatherDisplay:10.37,2013-03-06 00:22:00,
2013-03-05 16:27:00,46.8,31.4,29.82,NNW,338,0.0,0.0,55,0.00,CLR,,0.00,WeatherDisplay:10.37,2013-03-06 00:27:00,
2013-03-05 16:32:00,46.6,31.7,29.81,NNW,338,0.0,0.0,56,0.00,CLR,,0.00,WeatherDisplay:10.37,2013-03-06 00:32:00,
2013-03-05 16:37:00,46.2,32.2,29.81,NNW,338,0.0,0.0,58,0.00,CLR,,0.00,WeatherDisplay:10.37,2013-03-06 00:37:00,
2013-03-05 16:42:00,46.2,32.2,29.82,NNW,338,0.0,0.0,58,0.00,CLR,,0.00,WeatherDisplay:10.37,2013-03-06 00:42:00,
2013-03-05 16:47:00,46.0,32.1,29.81,NNW,338,0.0,0.0,58,0.00,CLR,,0.00,WeatherDisplay:10.37,2013-03-06 00:47:00,
2013-03-05 16:52:00,45.7,32.6,29.81,NNW,338,0.0,0.0,60,0.00,CLR,,0.00,WeatherDisplay:10.37,2013-03-06 00:52:00,
2013-03-05 16:57:00,45.5,32.4,29.81,NNW,338,0.0,0.0,60,0.00,CLR,,0.00,WeatherDisplay:10.37,2013-03-06 00:57:00,
2013-03-05 17:02:00,45.3,32.2,29.81,NNW,338,0.0,0.0,60,0.00,CLR,,0.00,WeatherDisplay:10.37,2013-03-06 01:02:00,
2013-03-05 17:07:00,45.1,32.5,29.82,NNW,338,0.0,0.0,61,0.00,CLR,,0.00,WeatherDisplay:10.37,2013-03-06 01:07:00,
2013-03-05 17:12:00,45.1,32.1,29.82,NNW,338,0.0,0.0,60,0.00,CLR,,0.00,WeatherDisplay:10.37,2013-03-06 01:12:00,
2013-03-05 17:17:00,45.0,32.3,29.81,NNW,338,0.0,0.0,61,0.00,CLR,,0.00,WeatherDisplay:10.37,2013-03-06 01:17:00,
2013-03-05 17:22:00,44.8,32.5,29.81,NNW,338,0.0,0.0,62,0.00,CLR,,0.00,WeatherDisplay:10.37,2013-03-06 01:22:00,
2013-03-05 17:27:00,44.4,32.2,29.82,NNW,338,0.0,0.0,62,0.00,CLR,,0.00,WeatherDisplay:10.37,2013-03-06 01:27:00,
2013-03-05 17:32:00,44.4,32.2,29.81,NNW,338,0.0,0.0,62,0.00,CLR,,0.00,WeatherDisplay:10.37,2013-03-06 01:32:00,
2013-03-05 17:37:00,44.2,32.0,29.82,NNW,338,0.0,0.0,62,0.00,CLR,,0.00,WeatherDisplay:10.37,2013-03-06 01:37:00,
2013-03-05 17:42:00,44.1,31.9,29.82,NNW,338,0.0,0.0,62,0.00,CLR,,0.00,WeatherDisplay:10.37,2013-03-06 01:42:00,
2013-03-05 17:47:00,43.9,31.7,29.82,NNW,338,2.3,2.3,62,0.00,CLR,,0.00,WeatherDisplay:10.37,2013-03-06 01:47:00,
2013-03-05 17:52:00,43.7,31.5,29.82,NNW,338,0.0,0.0,62,0.00,CLR,,0.00,WeatherDisplay:10.37,2013-03-06 01:52:00,
2013-03-05 17:57:00,43.5,31.8,29.82,NNW,338,0.0,0.0,63,0.00,CLR,,0.00,WeatherDisplay:10.37,2013-03-06 01:57:00,
2013-03-05 18:02:00,43.2,31.4,29.82,NNW,338,0.0,0.0,63,0.00,CLR,,0.00,WeatherDisplay:10.37,2013-03-06 02:02:00,
2013-03-05 18:07:00,42.8,31.8,29.81,NNW,338,0.0,0.0,65,0.00,CLR,,0.00,WeatherDisplay:10.37,2013-03-06 02:07:00,
2013-03-05 18:12:00,42.6,32.0,29.82,NNW,338,0.0,0.0,66,0.00,CLR,,0.00,WeatherDisplay:10.37,2013-03-06 02:12:00,
2013-03-05 18:17:00,42.4,31.9,29.82,NNW,338,0.0,0.0,66,0.00,CLR,,0.00,WeatherDisplay:10.37,2013-03-06 02:17:00,
2013-03-05 18:22:00,42.1,31.5,29.82,NNW,338,0.0,0.0,66,0.00,CLR,,0.00,WeatherDisplay:10.37,2013-03-06 02:22:00,
2013-03-05 18:27:00,41.9,31.7,29.81,NNW,338,0.0,0.0,67,0.00,CLR,,0.00,WeatherDisplay:10.37,2013-03-06 02:27:00,
2013-03-05 18:32:00,41.7,31.6,29.81,NNW,338,0.0,0.0,67,0.00,CLR,,0.00,WeatherDisplay:10.37,2013-03-06 02:32:00,
2013-03-05 18:37:00,41.5,31.4,29.82,NNW,338,0.0,0.0,67,0.00,CLR,,0.00,WeatherDisplay:10.37,2013-03-06 02:37:00,
2013-03-05 18:42:00,41.5,31.8,29.81,NNW,338,0.0,0.0,68,0.00,CLR,,0.00,WeatherDisplay:10.37,2013-03-06 02:42:00,
2013-03-05 18:47:00,41.4,31.6,29.82,NNW,338,0.0,0.0,68,0.00,CLR,,0.00,WeatherDisplay:10.37,2013-03-06 02:47:00,
2013-03-05 18:52:00,41.2,31.4,29.81,NNW,338,0.0,0.0,68,0.00,CLR,,0.00,WeatherDisplay:10.37,2013-03-06 02:52:00,
2013-03-05 18:57:00,41.0,31.6,29.82,NNW,338,0.0,0.0,69,0.00,CLR,,0.00,WeatherDisplay:10.37,2013-03-06 02:57:00,
2013-03-05 19:02:00,40.8,31.4,29.82,NNW,338,0.0,0.0,69,0.00,CLR,,0.00,WeatherDisplay:10.37,2013-03-06 03:02:00,
2013-03-05 19:07:00,40.8,31.8,29.82,NNW,338,0.0,0.0,70,0.00,CLR,,0.00,WeatherDisplay:10.37,2013-03-06 03:07:00,
2013-03-05 19:12:00,40.8,31.8,29.81,NNW,338,0.0,0.0,70,0.00,CLR,,0.00,WeatherDisplay:10.37,2013-03-06 03:12:00,
2013-03-05 19:17:00,40.6,31.6,29.81,NNW,338,0.0,0.0,70,0.00,CLR,,0.00,WeatherDisplay:10.37,2013-03-06 03:17:00,
2013-03-05 19:22:00,40.6,31.6,29.81,NNW,338,0.0,0.0,70,0.00,CLR,,0.00,WeatherDisplay:10.37,2013-03-06 03:22:00,
2013-03-05 19:27:00,40.5,31.4,29.81,NNW,338,0.0,0.0,70,0.00,CLR,,0.00,WeatherDisplay:10.37,2013-03-06 03:27:00,
2013-03-05 19:32:00,40.3,31.6,29.81,NNW,338,0.0,0.0,71,0.00,CLR,,0.00,WeatherDisplay:10.37,2013-03-06 03:32:00,
2013-03-05 19:37:00,40.1,31.8,29.81,NNW,338,0.0,0.0,72,0.00,CLR,,0.00,WeatherDisplay:10.37,2013-03-06 03:37:00,
2013-03-05 19:42:00,40.1,31.8,29.81,NNW,338,0.0,0.0,72,0.00,CLR,,0.00,WeatherDisplay:10.37,2013-03-06 03:42:00,
2013-03-05 19:47:00,39.9,31.6,29.81,NNW,338,0.0,0.0,72,0.00,CLR,,0.00,WeatherDisplay:10.37,2013-03-06 03:47:00,
2013-03-05 19:52:00,39.9,31.6,29.81,NNW,338,0.0,0.0,72,0.00,CLR,,0.00,WeatherDisplay:10.37,2013-03-06 03:52:00,
2013-03-05 19:57:00,39.7,31.8,29.80,NNW,338,0.0,0.0,73,0.00,CLR,,0.00,WeatherDisplay:10.37,2013-03-06 03:57:00,
2013-03-05 20:02:00,39.7,31.8,29.80,NNW,338,0.0,0.0,73,0.00,CLR,,0.00,WeatherDisplay:10.37,2013-03-06 04:02:00,
2013-03-05 20:07:00,39.7,31.8,29.80,NNW,338,0.0,0.0,73,0.00,CLR,,0.00,WeatherDisplay:10.37,2013-03-06 04:07:00,
2013-03-05 20:12:00,39.7,31.8,29.80,NNW,338,0.0,0.0,73,0.00,CLR,,0.00,WeatherDisplay:10.37,2013-03-06 04:12:00,
2013-03-05 20:17:00,39.6,31.6,29.80,NNW,338,0.0,0.0,73,0.00,CLR,,0.00,WeatherDisplay:10.37,2013-03-06 04:17:00,
2013-03-05 20:22:00,39.6,32.0,29.80,NNW,338,0.0,0.0,74,0.00,CLR,,0.00,WeatherDisplay:10.37,2013-03-06 04:22:00,
2013-03-05 20:27:00,39.4,31.8,29.80,NNW,338,0.0,0.0,74,0.00,CLR,,0.00,WeatherDisplay:10.37,2013-03-06 04:27:00,
2013-03-05 20:32:00,39.0,31.4,29.80,NNW,338,0.0,0.0,74,0.00,CLR,,0.00,WeatherDisplay:10.37,2013-03-06 04:32:00,
2013-03-05 20:37:00,39.0,31.4,29.80,NNW,338,0.0,0.0,74,0.00,CLR,,0.00,WeatherDisplay:10.37,2013-03-06 04:37:00,
2013-03-05 20:42:00,39.0,31.4,29.80,NNW,338,0.0,0.0,74,0.00,CLR,,0.00,WeatherDisplay:10.37,2013-03-06 04:42:00,
2013-03-05 20:47:00,39.0,31.4,29.80,NNW,338,0.0,0.0,74,0.00,CLR,,0.00,WeatherDisplay:10.37,2013-03-06 04:47:00,
2013-03-05 20:52:00,39.0,31.4,29.81,NNW,338,0.0,0.0,74,0.00,CLR,,0.00,WeatherDisplay:10.37,2013-03-06 04:52:00,
2013-03-05 20:57:00,38.8,31.3,29.81,NNW,338,0.0,0.0,74,0.00,CLR,,0.00,WeatherDisplay:10.37,2013-03-06 04:57:00,
2013-03-05 21:00:00,38.8,31.3,29.80,NNW,338,0.0,0.0,74,0.00,CLR,,0.00,WeatherDisplay:10.37,2013-03-06 05:00:00,
2013-03-05 21:05:00,38.8,31.6,29.80,NNW,338,0.0,0.0,75,0.00,CLR,,0.00,WeatherDisplay:10.37,2013-03-06 05:05:00,
2013-03-05 21:10:00,38.5,31.2,29.80,NNW,338,0.0,0.0,75,0.00,CLR,,0.00,WeatherDisplay:10.37,2013-03-06 05:10:00,
2013-03-05 21:15:00,38.5,31.2,29.80,NNW,338,0.0,0.0,75,0.00,CLR,,0.00,WeatherDisplay:10.37,2013-03-06 05:15:00,
2013-03-05 21:20:00,38.5,31.6,29.80,NNW,338,0.0,0.0,76,0.00,CLR,,0.00,WeatherDisplay:10.37,2013-03-06 05:20:00,
2013-03-05 21:25:00,38.3,31.4,29.80,NW,315,0.0,0.0,76,0.00,CLR,,0.00,WeatherDisplay:10.37,2013-03-06 05:25:00,
2013-03-05 21:30:00,38.3,31.4,29.80,NW,315,0.0,0.0,76,0.00,CLR,,0.00,WeatherDisplay:10.37,2013-03-06 05:30:00,
2013-03-05 21:35:00,38.1,31.5,29.80,NE,45,0.0,0.0,77,0.00,CLR,,0.00,WeatherDisplay:10.37,2013-03-06 05:35:00,
2013-03-05 21:40:00,38.1,31.5,29.80,NE,45,0.0,0.0,77,0.00,CLR,,0.00,WeatherDisplay:10.37,2013-03-06 05:40:00,
2013-03-05 21:45:00,37.9,31.7,29.79,ESE,112,0.0,0.0,78,0.00,CLR,,0.00,WeatherDisplay:10.37,2013-03-06 05:45:00,
2013-03-05 21:50:00,37.9,31.7,29.79,ESE,112,0.0,0.0,78,0.00,CLR,,0.00,WeatherDisplay:10.37,2013-03-06 05:50:00,
2013-03-05 21:55:00,37.9,31.7,29.79,ESE,112,0.0,0.0,78,0.00,CLR,,0.00,WeatherDisplay:10.37,2013-03-06 05:55:00,
2013-03-05 22:00:00,37.9,31.7,29.79,ESE,112,0.0,0.0,78,0.00,CLR,,0.00,WeatherDisplay:10.37,2013-03-06 06:00:00,
2013-03-05 22:05:00,37.9,31.7,29.79,ESE,112,0.0,0.0,78,0.00,CLR,,0.00,WeatherDisplay:10.37,2013-03-06 06:05:00,
2013-03-05 22:10:00,37.9,31.7,29.78,ESE,112,0.0,0.0,78,0.00,CLR,,0.00,WeatherDisplay:10.37,2013-03-06 06:10:00,
2013-03-05 22:15:00,37.9,32.0,29.78,ESE,112,0.0,0.2,79,0.00,CLR,,0.00,WeatherDisplay:10.37,2013-03-06 06:15:00,
2013-03-05 22:20:00,37.9,32.0,29.79,SW,225,5.8,5.8,79,0.00,CLR,,0.00,WeatherDisplay:10.37,2013-03-06 06:20:00,
2013-03-05 22:25:00,37.9,32.0,29.78,WSW,248,5.1,5.1,79,0.00,CLR,,0.00,WeatherDisplay:10.37,2013-03-06 06:25:00,
2013-03-05 22:30:00,37.9,32.0,29.77,NE,45,3.4,3.4,79,0.00,CLR,,0.00,WeatherDisplay:10.37,2013-03-06 06:30:00,
2013-03-05 22:35:00,37.9,32.0,29.77,NE,45,2.3,2.3,79,0.00,CLR,,0.00,WeatherDisplay:10.37,2013-03-06 06:35:00,
2013-03-05 22:40:00,37.9,32.0,29.77,NE,45,0.0,0.0,79,0.00,CLR,,0.00,WeatherDisplay:10.37,2013-03-06 06:40:00,
2013-03-05 22:45:00,37.9,32.0,29.77,West,270,2.3,2.3,79,0.00,CLR,,0.00,WeatherDisplay:10.37,2013-03-06 06:45:00,
2013-03-05 22:50:00,37.9,32.0,29.77,West,270,0.0,0.0,79,0.00,CLR,,0.00,WeatherDisplay:10.37,2013-03-06 06:50:00,
2013-03-05 22:55:00,37.8,31.8,29.77,SW,225,4.0,4.0,79,0.00,CLR,,0.00,WeatherDisplay:10.37,2013-03-06 06:55:00,
2013-03-05 23:00:00,37.6,31.7,29.77,SSW,202,2.3,2.3,79,0.00,CLR,,0.00,WeatherDisplay:10.37,2013-03-06 07:00:00,
2013-03-05 23:05:00,37.6,32.0,29.77,South,180,1.1,0.0,80,0.00,CLR,,0.00,WeatherDisplay:10.37,2013-03-06 07:05:00,
2013-03-05 23:10:00,37.4,31.8,29.77,South,180,0.0,0.0,80,0.00,CLR,,0.00,WeatherDisplay:10.37,2013-03-06 07:10:00,
2013-03-05 23:15:00,37.4,31.8,29.77,South,180,0.0,0.0,80,0.00,CLR,,0.00,WeatherDisplay:10.37,2013-03-06 07:15:00,
2013-03-05 23:20:00,37.2,31.6,29.77,South,180,0.0,0.0,80,0.00,CLR,,0.00,WeatherDisplay:10.37,2013-03-06 07:20:00,
2013-03-05 23:25:00,37.4,31.8,29.77,South,180,0.0,0.0,80,0.00,CLR,,0.00,WeatherDisplay:10.37,2013-03-06 07:25:00,
2013-03-05 23:30:00,37.2,31.6,29.76,SSW,202,0.0,0.0,80,0.00,CLR,,0.00,WeatherDisplay:10.37,2013-03-06 07:30:00,
2013-03-05 23:35:00,37.2,31.6,29.76,WSW,248,2.3,2.3,80,0.00,CLR,,0.00,WeatherDisplay:10.37,2013-03-06 07:35:00,
2013-03-05 23:40:00,37.2,31.6,29.76,WSW,248,3.5,0.0,80,0.00,CLR,,0.00,WeatherDisplay:10.37,2013-03-06 07:40:00,
2013-03-05 23:45:00,37.2,31.6,29.75,WSW,248,0.0,0.0,80,0.00,CLR,,0.00,WeatherDisplay:10.37,2013-03-06 07:45:00,
2013-03-05 23:50:00,37.0,31.4,29.75,WSW,248,0.0,0.0,80,0.00,CLR,,0.00,WeatherDisplay:10.37,2013-03-06 07:50:00,
2013-03-05 23:55:00,37.0,31.4,29.75,WSW,248,0.0,0.0,80,0.00,CLR,,0.00,WeatherDisplay:10.37,2013-03-06 07:55:00,